Location: Deneb Observatory
(47.2267°N, 100.4953°W)
Time: 19:16:53
(UTC-05:00)

Amateur Radio Satellites - All Passes

Search period start: 23 July 2014 18:46
Search period end: 24 July 2014 18:46
Location: Deneb Observatory, 47.2267°N, 100.4953°W

Satellite Date Start Highest point End Downlink Frequencies (MHz)
Time Altitude Azimuth
SO-67 23 Jul 18:53:46 18:55:42 14° 64° (ENE) 18:57:38 435.3500 MHz FM
AO-7 23 Jul 18:56:06 19:02:08 22° 271° (W) 19:08:13 29.400 - 29.500 MHz
Hamsat 23 Jul 19:05:26 19:09:34 64° 259° (W) 19:13:45 145.90 MHz
Saudisat 1A 23 Jul 19:13:13 19:17:22 41° 240° (WSW) 19:21:29 436.775 MHz
OPAL 23 Jul 19:43:09 19:46:13 17° 306° (NW) 19:49:18 ?
JAS-2 23 Jul 19:58:31 20:05:58 46° 263° (W) 20:13:09 435.800 - 435.900 CW/SSB, 435.910 FM
RS-15 23 Jul 20:03:33 20:12:58 31° 357° (N) 20:22:28 29.354 - 29.394 USB, Beacon 29.352 USB
UOSAT-12 23 Jul 20:10:49 20:12:52 13° 341° (NNW) 20:14:54 437.025 FM, 437.400 FM
STRAND 1 23 Jul 20:16:20 20:21:20 50° 100° (E) 20:26:16 ?
HO-68 23 Jul 20:21:26 20:27:23 30° 56° (NE) 20:33:21 435.675 MHz FM
SO-67 23 Jul 20:25:07 20:28:26 44° 261° (W) 20:31:48 435.3500 MHz FM
UKube-1 23 Jul 20:54:50 20:58:01 20° 62° (ENE) 21:01:13 145.840 MHz, 145.915 MHz
SO-50 23 Jul 21:00:59 21:03:22 14° 22° (NNE) 21:05:45 436.795 FM
Oscar 11 23 Jul 21:45:45 21:49:29 29° 67° (ENE) 21:53:14 145.825 FM, Beacon 2401.500 USB
FUNcube-1 23 Jul 21:52:29 21:54:55 15° 61° (ENE) 21:57:19 145.950 - 145.970 MHz USB
STRAND 1 23 Jul 21:56:05 22:00:14 26° 298° (WNW) 22:04:22 ?
HO-68 23 Jul 22:07:26 22:14:35 69° 256° (WSW) 22:21:46 435.675 MHz FM
RS-15 23 Jul 22:18:29 22:28:52 44° 31° (NNE) 22:39:28 29.354 - 29.394 USB, Beacon 29.352 USB
UKube-1 23 Jul 22:29:40 22:33:54 50° 260° (W) 22:38:11 145.840 MHz, 145.915 MHz
SO-50 23 Jul 22:40:37 22:45:08 43° 44° (NE) 22:49:42 436.795 FM
MaSat-1 23 Jul 22:49:46 22:52:44 20° 103° (ESE) 22:56:01 437.345 MHz
Oscar 11 23 Jul 23:21:50 23:25:38 30° 264° (W) 23:29:28 145.825 FM, Beacon 2401.500 USB
FUNcube-1 23 Jul 23:26:28 23:30:50 69° 258° (WSW) 23:35:08 145.950 - 145.970 MHz USB
UOSAT-12 23 Jul 23:33:43 23:37:13 20° 31° (NNE) 23:40:42 437.025 FM, 437.400 FM
HO-68 24 Jul 00:00:30 00:03:36 13° 276° (W) 00:06:43 435.675 MHz FM
SO-50 24 Jul 00:21:24 00:25:37 32° 243° (WSW) 00:29:52 436.795 FM
MaSat-1 24 Jul 00:25:36 00:29:36 50° 306° (NW) 00:34:16 437.345 MHz
RS-15 24 Jul 00:31:14 00:42:13 77° 238° (WSW) 00:53:35 29.354 - 29.394 USB, Beacon 29.352 USB
UOSAT-12 24 Jul 01:13:20 01:18:06 82° 52° (NE) 01:22:48 437.025 FM, 437.400 FM
AO-40 24 Jul 01:19:31 06:52:44 33° 180° (S) 10:15:39 Beacon 2401.320
Lituanica SAT-1 24 Jul 01:48:48 01:50:53 47° 150° (SSE) 01:52:58 437.275 MHz beacon
ISS 24 Jul 01:56:32 01:58:18 14° 134° (SE) 02:00:03 145.800 FM
MaSat-1 24 Jul 02:06:29 02:08:17 12° 329° (NNW) 02:10:08 437.345 MHz
Sapphire 24 Jul 02:16:53 02:21:11 25° 109° (ESE) 02:25:31 437.095 MHz 1200 baud AX-25 AFSK
JAS-1B 24 Jul 02:42:12 02:48:30 19° 80° (E) 02:54:21 435.800 - 435.900 CW/SSB
RS-15 24 Jul 02:45:20 02:52:44 21° 261° (W) 03:00:19 29.354 - 29.394 USB, Beacon 29.352 USB
Oscar 19 24 Jul 02:48:15 02:52:59 35° 96° (E) 02:57:42 437.125 CW, 437.150 USB
PCSat 24 Jul 02:49:47 02:54:57 48° 115° (ESE) 03:00:09 145.825 MHz
UOSAT-12 24 Jul 02:54:56 02:57:38 15° 250° (WSW) 03:00:18 437.025 FM, 437.400 FM
Oscar 16 24 Jul 03:15:25 03:20:33 64° 102° (ESE) 03:25:40 437.025 USB, Beacon 2401.1428
Lituanica SAT-1 24 Jul 03:21:48 03:23:45 29° 348° (NNW) 03:25:42 437.275 MHz beacon
ITAMSAT 1 24 Jul 03:24:53 03:29:40 36° 97° (E) 03:34:23 435.822 SSB
ISS 24 Jul 03:31:11 03:34:31 74° 152° (SSE) 03:37:53 145.800 FM
Gurwin Techsat 1B 24 Jul 03:34:18 03:38:09 20° 90° (E) 03:41:59 435.225 FM
AO-27 24 Jul 03:42:26 03:47:32 52° 100° (E) 03:52:34 436.795 MHz FM
OPAL 24 Jul 03:43:12 03:47:32 32° 62° (ENE) 03:51:53 ?
Uribyol 2 24 Jul 03:45:37 03:50:43 57° 101° (E) 03:55:47 436.500 FM
AO-Echo 24 Jul 03:48:16 03:53:25 61° 101° (E) 03:58:23 ?
Sapphire 24 Jul 03:58:54 04:04:14 59° 308° (NW) 04:09:37 437.095 MHz 1200 baud AX-25 AFSK
Oscar 19 24 Jul 04:27:41 04:32:18 35° 295° (WNW) 04:36:56 437.125 CW, 437.150 USB
JAS-1B 24 Jul 04:30:56 04:40:47 75° 103° (ESE) 04:49:25 435.800 - 435.900 CW/SSB
PCSat 24 Jul 04:33:38 04:38:33 34° 316° (NW) 04:43:30 145.825 MHz
TMSAT-1 24 Jul 04:52:26 04:57:44 68° 102° (ESE) 05:02:59 436.925 FM
Lituanica SAT-1 24 Jul 04:55:02 04:56:55 25° 8° (N) 04:58:48 437.275 MHz beacon
Oscar 16 24 Jul 04:55:42 04:59:28 21° 300° (WNW) 05:03:14 437.025 USB, Beacon 2401.1428
AO-7 24 Jul 04:58:48 05:05:25 25° 91° (E) 05:11:57 29.400 - 29.500 MHz
ITAMSAT 1 24 Jul 05:04:28 05:09:08 35° 295° (WNW) 05:13:46 435.822 SSB
ISS 24 Jul 05:08:13 05:11:26 40° 351° (N) 05:14:39 145.800 FM
Gurwin Techsat 1B 24 Jul 05:13:19 05:18:35 63° 289° (WNW) 05:23:48 435.225 FM
OPAL 24 Jul 05:21:46 05:26:21 37° 260° (W) 05:30:57 ?
AO-27 24 Jul 05:22:33 05:26:45 25° 299° (WNW) 05:30:55 436.795 MHz FM
Uribyol 2 24 Jul 05:25:50 05:29:50 23° 300° (WNW) 05:33:48 436.500 FM
AO-Echo 24 Jul 05:27:52 05:31:44 22° 300° (WNW) 05:35:31 ?
Uosat F 24 Jul 05:40:29 05:45:19 44° 99° (E) 05:50:05 435.120 FM
Sapphire 24 Jul 05:45:25 05:48:50 17° 331° (NNW) 05:52:15 437.095 MHz 1200 baud AX-25 AFSK
STRAND 1 24 Jul 05:58:49 06:01:57 17° 57° (ENE) 06:05:05 ?
PCSat 24 Jul 06:21:38 06:23:41 12° 340° (NNW) 06:25:45 145.825 MHz
JAS-1B 24 Jul 06:21:58 06:30:26 35° 305° (NW) 06:38:13 435.800 - 435.900 CW/SSB
Oscar 10/S400 24 Jul 06:26:24 07:39:36 36° 233° (SW) 12:00:21 145.825 - 145.975 CW/USB, Beacon 145.810 USB
Lituanica SAT-1 24 Jul 06:27:43 06:29:53 80° 202° (SSW) 06:32:01 437.275 MHz beacon
TMSAT-1 24 Jul 06:33:20 06:37:09 21° 301° (WNW) 06:40:58 436.925 FM
ISS 24 Jul 06:45:20 06:48:35 44° 12° (NNE) 06:51:50 145.800 FM
Hamsat 24 Jul 06:48:46 06:51:48 19° 91° (E) 06:54:50 145.90 MHz
AO-7 24 Jul 06:50:42 06:59:05 81° 292° (WNW) 07:07:23 29.400 - 29.500 MHz
Gurwin Techsat 1B 24 Jul 06:55:57 06:57:32 11° 308° (NW) 06:59:07 435.225 FM
KITSAT 1 24 Jul 06:58:08 07:03:47 21° 102° (ESE) 07:09:25 435.175 FM
MaSat-1 24 Jul 07:03:55 07:07:52 21° 41° (NE) 07:11:50 437.345 MHz
JAS-2 24 Jul 07:06:13 07:11:20 25° 89° (E) 07:15:59 435.800 - 435.900 CW/SSB, 435.910 FM
Uosat F 24 Jul 07:19:42 07:23:54 27° 297° (WNW) 07:28:04 435.120 FM
STRAND 1 24 Jul 07:35:20 07:40:29 84° 255° (WSW) 07:45:41 ?
SO-67 24 Jul 07:48:08 07:48:52 11° 89° (E) 07:49:35 435.3500 MHz FM
JAS-1B 24 Jul 08:14:53 08:17:56 12° 329° (NNW) 08:20:57 435.800 - 435.900 CW/SSB
ISS 24 Jul 08:22:05 08:25:25 59° 211° (SSW) 08:28:43 145.800 FM
Hamsat 24 Jul 08:23:55 08:28:01 47° 289° (WNW) 08:32:09 145.90 MHz
MaSat-1 24 Jul 08:40:36 08:45:59 90° 241° (WSW) 08:51:12 437.345 MHz
AO-7 24 Jul 08:44:34 08:50:43 24° 314° (NW) 08:56:51 29.400 - 29.500 MHz
KITSAT 1 24 Jul 08:49:57 08:58:04 86° 123° (ESE) 09:06:13 435.175 FM
JAS-2 24 Jul 08:50:40 08:56:57 57° 292° (WNW) 09:02:30 435.800 - 435.900 CW/SSB, 435.910 FM
Sapphire 24 Jul 09:18:07 09:20:49 14° 24° (NNE) 09:23:31 437.095 MHz 1200 baud AX-25 AFSK
STRAND 1 24 Jul 09:18:35 09:20:28 12° 274° (W) 09:22:21 ?
SO-67 24 Jul 09:18:52 09:22:18 56° 286° (WNW) 09:25:43 435.3500 MHz FM
Saudisat 1A 24 Jul 09:22:59 09:26:32 24° 115° (ESE) 09:30:05 436.775 MHz
HO-68 24 Jul 09:32:49 09:37:49 20° 89° (E) 09:42:46 435.675 MHz FM
PCSat 24 Jul 09:51:41 09:55:36 20° 33° (NNE) 09:59:29 145.825 MHz
ISS 24 Jul 10:00:55 10:01:32 10° 228° (SW) 10:02:09 145.800 FM
UKube-1 24 Jul 10:15:22 10:18:46 22° 93° (E) 10:22:09 145.840 MHz, 145.915 MHz
MaSat-1 24 Jul 10:19:41 10:22:36 15° 260° (W) 10:25:28 437.345 MHz
JAS-2 24 Jul 10:38:11 10:40:29 12° 315° (NW) 10:42:42 435.800 - 435.900 CW/SSB, 435.910 FM
KITSAT 1 24 Jul 10:47:16 10:54:27 33° 327° (NNW) 11:01:40 435.175 FM
Sapphire 24 Jul 11:00:34 11:05:45 43° 48° (NE) 11:10:53 437.095 MHz 1200 baud AX-25 AFSK
Saudisat 1A 24 Jul 11:01:33 11:05:51 50° 313° (NW) 11:10:11 436.775 MHz
Oscar 11 24 Jul 11:05:49 11:09:52 37° 97° (E) 11:13:54 145.825 FM, Beacon 2401.500 USB
FUNcube-1 24 Jul 11:13:29 11:16:17 17° 91° (E) 11:19:04 145.950 - 145.970 MHz USB
HO-68 24 Jul 11:19:13 11:26:24 87° 289° (WNW) 11:33:33 435.675 MHz FM
PCSat 24 Jul 11:34:29 11:39:56 76° 55° (NE) 11:45:22 145.825 MHz
UKube-1 24 Jul 11:51:02 11:55:10 42° 291° (WNW) 11:59:15 145.840 MHz, 145.915 MHz
Oscar 19 24 Jul 12:33:00 12:34:49 12° 53° (NE) 12:36:38 437.125 CW, 437.150 USB
Oscar 11 24 Jul 12:42:23 12:45:53 25° 295° (WNW) 12:49:24 145.825 FM, Beacon 2401.500 USB
Saudisat 1A 24 Jul 12:44:10 12:46:29 14° 335° (NNW) 12:48:48 436.775 MHz
Sapphire 24 Jul 12:44:11 12:49:06 36° 247° (WSW) 12:54:00 437.095 MHz 1200 baud AX-25 AFSK
KITSAT 1 24 Jul 12:47:01 12:52:43 20° 356° (N) 12:58:24 435.175 FM
FUNcube-1 24 Jul 12:48:58 12:52:59 48° 289° (WNW) 12:56:59 145.950 - 145.970 MHz USB
Oscar 16 24 Jul 12:58:17 13:01:54 20° 59° (ENE) 13:05:33 437.025 USB, Beacon 2401.1428
HO-68 24 Jul 13:08:04 13:13:12 22° 309° (NW) 13:18:19 435.675 MHz FM
ITAMSAT 1 24 Jul 13:10:09 13:12:27 13° 53° (NE) 13:14:45 435.822 SSB
PCSat 24 Jul 13:19:05 13:22:44 19° 254° (WSW) 13:26:23 145.825 MHz
AO-27 24 Jul 13:26:38 13:30:03 18° 57° (ENE) 13:33:28 436.795 MHz FM
AO-Echo 24 Jul 13:27:28 13:30:59 18° 58° (ENE) 13:34:30 ?
Uribyol 2 24 Jul 13:29:21 13:32:56 19° 58° (ENE) 13:36:32 436.500 FM
JAS-1B 24 Jul 13:29:33 13:36:31 26° 48° (NE) 13:43:54 435.800 - 435.900 CW/SSB
Oscar 19 24 Jul 14:08:10 14:13:15 70° 72° (ENE) 14:18:21 437.125 CW, 437.150 USB
AO-7 24 Jul 14:13:54 14:17:53 14° 36° (NE) 14:21:52 29.400 - 29.500 MHz
Oscar 16 24 Jul 14:35:41 14:40:47 67° 258° (WSW) 14:45:54 437.025 USB, Beacon 2401.1428
TMSAT-1 24 Jul 14:38:13 14:42:16 23° 60° (ENE) 14:46:20 436.925 FM
SO-50 24 Jul 14:38:59 14:43:08 39° 119° (ESE) 14:47:24 436.795 FM
KITSAT 1 24 Jul 14:44:29 14:51:15 28° 26° (NNE) 14:57:58 435.175 FM
ITAMSAT 1 24 Jul 14:45:52 14:51:04 74° 73° (ENE) 14:56:18 435.822 SSB
RS-15 24 Jul 14:58:08 15:08:41 52° 114° (ESE) 15:19:02 29.354 - 29.394 USB, Beacon 29.352 USB
Gurwin Techsat 1B 24 Jul 14:58:09 15:03:07 42° 67° (ENE) 15:08:06 435.225 FM
AO-27 24 Jul 15:03:43 15:08:57 79° 256° (WSW) 15:14:13 436.795 MHz FM
AO-Echo 24 Jul 15:03:49 15:09:07 80° 257° (WSW) 15:14:29 ?
Uribyol 2 24 Jul 15:06:41 15:11:53 72° 257° (WSW) 15:17:06 436.500 FM
JAS-1B 24 Jul 15:16:44 15:25:28 78° 70° (ENE) 15:35:19 435.800 - 435.900 CW/SSB
Uosat F 24 Jul 15:21:07 15:23:44 14° 55° (NE) 15:26:21 435.120 FM
UOSAT-12 24 Jul 15:30:53 15:32:15 11° 107° (ESE) 15:33:37 437.025 FM, 437.400 FM
Oscar 19 24 Jul 15:49:50 15:53:07 17° 271° (W) 15:56:26 437.125 CW, 437.150 USB
AO-7 24 Jul 16:00:49 16:08:40 47° 59° (ENE) 16:16:32 29.400 - 29.500 MHz
Saudisat 1A 24 Jul 16:07:21 16:09:41 14° 25° (NNE) 16:12:00 436.775 MHz
TMSAT-1 24 Jul 16:16:33 16:21:47 60° 259° (W) 16:27:04 436.925 FM
SO-50 24 Jul 16:19:40 16:23:46 34° 319° (NW) 16:27:59 436.795 FM
ITAMSAT 1 24 Jul 16:27:52 16:31:08 17° 271° (W) 16:34:25 435.822 SSB
Gurwin Techsat 1B 24 Jul 16:38:34 16:43:12 30° 265° (W) 16:47:52 435.225 FM
KITSAT 1 24 Jul 16:40:00 16:48:07 73° 52° (NE) 16:56:10 435.175 FM
AO-Echo 24 Jul 16:46:51 16:48:43 12° 275° (W) 16:50:36 ?
AO-27 24 Jul 16:47:52 16:49:20 11° 274° (W) 16:50:47 436.795 MHz FM
Uosat F 24 Jul 16:56:43 17:01:46 85° 74° (ENE) 17:06:52 435.120 FM
UOSAT-12 24 Jul 17:06:58 17:11:35 79° 125° (SE) 17:16:18 437.025 FM, 437.400 FM
JAS-1B 24 Jul 17:09:29 17:16:54 30° 273° (W) 17:25:08 435.800 - 435.900 CW/SSB
RS-15 24 Jul 17:10:07 17:20:58 58° 319° (NW) 17:31:46 29.354 - 29.394 USB, Beacon 29.352 USB
JAS-2 24 Jul 17:20:57 17:26:42 24° 56° (NE) 17:32:13 435.800 - 435.900 CW/SSB, 435.910 FM
OPAL 24 Jul 17:27:52 17:32:39 41° 101° (E) 17:37:27 ?
Hamsat 24 Jul 17:45:32 17:48:36 20° 64° (ENE) 17:51:42 145.90 MHz
Saudisat 1A 24 Jul 17:45:58 17:50:17 50° 47° (NE) 17:54:35 436.775 MHz
AO-7 24 Jul 17:53:27 18:01:27 48° 260° (W) 18:09:30 29.400 - 29.500 MHz
SO-50 24 Jul 18:04:03 18:05:44 12° 342° (NNW) 18:07:27 436.795 FM
Uosat F 24 Jul 18:38:47 18:41:14 14° 272° (W) 18:43:42 435.120 FM
